Time,TemperatureF,DewpointF,PressureIn,WindDirection,WindDirectionDegrees,WindSpeedMPH,WindSpeedGustMPH,Humidity,HourlyPrecipIn,Conditions,Clouds,dailyrainin,SoftwareType,DateUTC
2013-03-08 00:27:00,54.0,50.2,29.92,North,0,0.0,0.0,87,0.00,,OVC,0.00,WUHU21623XXSP,2013-03-07 22:27:00,
2013-03-08 01:27:00,53.1,49.0,29.91,North,0,0.0,0.0,86,0.00,,OVC,0.00,WUHU21623XXSP,2013-03-07 23:27:00,
2013-03-08 02:27:00,52.7,48.9,29.90,North,0,0.0,0.0,87,0.00,,OVC,0.00,WUHU21623XXSP,2013-03-08 00:27:00,
2013-03-08 03:27:00,52.5,49.3,29.89,NNE,23,0.0,0.0,89,0.00,,OVC,0.00,WUHU21623XXSP,2013-03-08 01:27:00,
2013-03-08 04:27:00,52.7,49.5,29.88,North,0,0.0,0.0,89,0.00,,OVC,0.00,WUHU21623XXSP,2013-03-08 02:27:00,
2013-03-08 05:27:00,52.0,49.1,29.88,North,0,0.0,0.0,90,0.00,,OVC,0.00,WUHU21623XXSP,2013-03-08 03:27:00,
2013-03-08 06:27:00,51.1,48.2,29.88,North,0,0.0,0.0,90,0.00,,OVC,0.00,WUHU21623XXSP,2013-03-08 04:27:00,
2013-03-08 07:27:00,51.1,48.5,29.88,NNE,23,0.0,0.0,91,0.00,,OVC,0.00,WUHU21623XXSP,2013-03-08 05:27:00,
2013-03-08 08:27:00,52.3,49.7,29.90,NNW,338,0.0,0.0,91,0.00,,OVC,0.00,WUHU21623XXSP,2013-03-08 06:27:00,
2013-03-08 09:24:00,54.5,50.4,29.91,NNE,22,0.0,0.0,86,0.00,,OVC,0.00,WUHU21623XXSP,2013-03-08 07:24:00,
2013-03-08 09:29:00,54.9,50.5,29.91,NE,45,0.0,0.0,85,0.00,,OVC,0.00,WUHU21623XXSP,2013-03-08 07:29:00,
2013-03-08 09:34:00,55.0,50.6,29.91,NE,45,0.0,0.0,85,0.00,,OVC,0.00,WUHU21623XXSP,2013-03-08 07:34:00,
2013-03-08 09:39:00,55.0,50.3,29.91,East,90,0.0,0.0,84,0.00,,OVC,0.00,WUHU21623XXSP,2013-03-08 07:39:00,
2013-03-08 09:44:00,55.6,50.9,29.91,North,0,0.0,0.0,84,0.00,,OVC,0.00,WUHU21623XXSP,2013-03-08 07:44:00,
2013-03-08 09:49:00,55.8,50.7,29.91,NNW,337,0.0,0.0,83,0.00,,OVC,0.00,WUHU21623XXSP,2013-03-08 07:49:00,
2013-03-08 09:54:00,55.9,50.5,29.91,WSW,247,0.0,0.0,82,0.00,,OVC,0.00,WUHU21623XXSP,2013-03-08 07:54:00,
2013-03-08 09:59:00,56.3,50.3,29.91,NE,45,0.0,0.0,80,0.00,,OVC,0.00,WUHU21623XXSP,2013-03-08 07:59:00,
2013-03-08 10:04:00,56.7,50.6,29.91,ENE,67,0.0,0.0,80,0.00,,OVC,0.00,WUHU21623XXSP,2013-03-08 08:04:00,
2013-03-08 10:09:00,56.8,50.7,29.91,WNW,292,0.0,0.0,80,0.00,,OVC,0.00,WUHU21623XXSP,2013-03-08 08:09:00,
2013-03-08 10:14:00,56.8,49.7,29.90,WSW,247,0.0,0.0,77,0.00,,OVC,0.00,WUHU21623XXSP,2013-03-08 08:14:00,
2013-03-08 10:19:00,56.8,49.4,29.90,ENE,67,0.0,0.0,76,0.00,,OVC,0.00,WUHU21623XXSP,2013-03-08 08:19:00,
2013-03-08 10:24:00,56.8,49.7,29.91,North,0,0.0,0.0,77,0.00,,OVC,0.00,WUHU21623XXSP,2013-03-08 08:24:00,
2013-03-08 10:29:00,56.7,50.0,29.91,NNE,22,0.0,0.0,78,0.00,,OVC,0.00,WUHU21623XXSP,2013-03-08 08:29:00,
2013-03-08 10:34:00,56.7,49.6,29.91,SSW,202,0.0,0.0,77,0.00,,OVC,0.00,WUHU21623XXSP,2013-03-08 08:34:00,
2013-03-08 10:39:00,56.8,50.4,29.91,SSW,202,0.0,0.0,79,0.00,,OVC,0.00,WUHU21623XXSP,2013-03-08 08:39:00,
2013-03-08 10:44:00,56.8,50.1,29.91,SSW,202,0.0,1.4,78,0.00,,OVC,0.00,WUHU21623XXSP,2013-03-08 08:44:00,
2013-03-08 10:49:00,56.8,49.7,29.91,SSW,202,0.0,1.4,77,0.00,,OVC,0.00,WUHU21623XXSP,2013-03-08 08:49:00,
2013-03-08 10:54:00,57.4,51.0,29.91,WNW,292,0.0,0.0,79,0.00,,OVC,0.00,WUHU21623XXSP,2013-03-08 08:54:00,
2013-03-08 10:59:00,57.4,50.7,29.91,SW,225,0.0,4.2,78,0.00,,OVC,0.00,WUHU21623XXSP,2013-03-08 08:59:00,
2013-03-08 11:04:00,57.6,50.9,29.91,SE,135,0.0,4.7,78,0.00,,OVC,0.00,WUHU21623XXSP,2013-03-08 09:04:00,
2013-03-08 11:09:00,57.9,51.2,29.91,SW,225,0.0,4.7,78,0.00,,OVC,0.00,WUHU21623XXSP,2013-03-08 09:09:00,
2013-03-08 11:14:00,58.1,51.0,29.91,SSW,202,0.0,3.2,77,0.00,,OVC,0.00,WUHU21623XXSP,2013-03-08 09:14:00,
2013-03-08 11:19:00,58.3,50.9,29.90,West,270,0.0,3.2,76,0.00,,OVC,0.00,WUHU21623XXSP,2013-03-08 09:19:00,
2013-03-08 11:24:00,58.5,51.1,29.90,WSW,247,2.4,4.7,76,0.00,,OVC,0.00,WUHU21623XXSP,2013-03-08 09:24:00,
2013-03-08 11:29:00,58.6,50.8,29.90,WSW,247,0.0,4.7,75,0.00,,OVC,0.00,WUHU21623XXSP,2013-03-08 09:29:00,
2013-03-08 11:34:00,59.2,51.0,29.90,WSW,247,0.0,4.2,74,0.00,,OVC,0.00,WUHU21623XXSP,2013-03-08 09:34:00,
2013-03-08 11:39:00,59.7,50.8,29.90,SE,135,2.0,4.2,72,0.00,,OVC,0.00,WUHU21623XXSP,2013-03-08 09:39:00,
2013-03-08 11:44:00,59.9,49.1,29.90,SW,225,4.7,4.7,67,0.00,,OVC,0.00,WUHU21623XXSP,2013-03-08 09:44:00,
2013-03-08 11:49:00,59.7,46.8,29.90,SE,135,0.0,4.7,62,0.00,,OVC,0.00,WUHU21623XXSP,2013-03-08 09:49:00,
2013-03-08 11:54:00,60.1,48.0,29.90,South,180,0.0,4.9,64,0.00,,BKN,0.00,WUHU21623XXSP,2013-03-08 09:54:00,
2013-03-08 11:59:00,60.8,49.1,29.89,SSW,202,0.0,4.9,65,0.00,,BKN,0.00,WUHU21623XXSP,2013-03-08 09:59:00,
2013-03-08 12:04:00,61.0,49.7,29.89,NNW,337,0.0,3.4,66,0.00,,BKN,0.00,WUHU21623XXSP,2013-03-08 10:04:00,
2013-03-08 12:09:00,61.5,49.4,29.89,SW,225,0.0,3.2,64,0.00,,BKN,0.00,WUHU21623XXSP,2013-03-08 10:09:00,
2013-03-08 12:14:00,61.7,49.1,29.88,SSE,157,1.2,3.2,63,0.00,,BKN,0.00,WUHU21623XXSP,2013-03-08 10:14:00,
2013-03-08 12:19:00,61.7,48.7,29.88,South,180,4.0,4.4,62,0.00,,BKN,0.00,WUHU21623XXSP,2013-03-08 10:19:00,
2013-03-08 12:24:00,62.2,49.6,29.88,SW,225,1.0,4.4,63,0.00,,BKN,0.00,WUHU21623XXSP,2013-03-08 10:24:00,
2013-03-08 12:29:00,62.8,49.7,29.88,West,270,0.0,5.4,62,0.00,,BKN,0.00,WUHU21623XXSP,2013-03-08 10:29:00,
2013-03-08 12:34:00,62.1,49.1,29.88,SSW,202,0.0,7.9,62,0.00,,BKN,0.00,WUHU21623XXSP,2013-03-08 10:34:00,
2013-03-08 12:39:00,62.1,48.6,29.88,South,180,0.0,7.9,61,0.00,,BKN,0.00,WUHU21623XXSP,2013-03-08 10:39:00,
2013-03-08 12:44:00,62.2,48.3,29.88,SW,225,4.0,7.2,60,0.00,,BKN,0.00,WUHU21623XXSP,2013-03-08 10:44:00,
2013-03-08 12:49:00,62.2,48.3,29.88,WSW,247,6.6,7.2,60,0.00,,BKN,0.00,WUHU21623XXSP,2013-03-08 10:49:00,
2013-03-08 12:54:00,62.4,48.9,29.88,ESE,112,0.0,8.4,61,0.00,,BKN,0.00,WUHU21623XXSP,2013-03-08 10:54:00,
2013-03-08 12:59:00,62.2,48.7,29.88,South,180,4.4,8.9,61,0.00,,BKN,0.00,WUHU21623XXSP,2013-03-08 10:59:00,
2013-03-08 13:04:00,63.0,49.9,29.88,SSW,202,0.0,8.9,62,0.00,,BKN,0.00,WUHU21623XXSP,2013-03-08 11:04:00,
2013-03-08 13:09:00,63.0,49.9,29.88,SW,225,0.0,7.2,62,0.00,,BKN,0.00,WUHU21623XXSP,2013-03-08 11:09:00,
2013-03-08 13:14:00,63.1,50.0,29.88,SE,135,0.0,7.6,62,0.00,,BKN,0.00,WUHU21623XXSP,2013-03-08 11:14:00,
2013-03-08 13:19:00,63.1,49.6,29.87,WNW,292,4.2,12.5,61,0.00,,BKN,0.00,WUHU21623XXSP,2013-03-08 11:19:00,
2013-03-08 13:24:00,62.4,48.0,29.87,South,180,5.6,12.5,59,0.00,,BKN,0.00,WUHU21623XXSP,2013-03-08 11:24:00,
2013-03-08 13:29:00,62.2,47.8,29.87,WSW,247,4.4,10.1,59,0.00,,BKN,0.00,WUHU21623XXSP,2013-03-08 11:29:00,
2013-03-08 13:34:00,62.1,47.7,29.87,SE,135,0.0,10.1,59,0.00,,BKN,0.00,WUHU21623XXSP,2013-03-08 11:34:00,
2013-03-08 13:39:00,62.1,48.2,29.87,SSW,202,3.4,10.6,60,0.00,,BKN,0.00,WUHU21623XXSP,2013-03-08 11:39:00,
2013-03-08 13:44:00,63.0,49.0,29.87,SSE,157,1.4,10.6,60,0.00,,BKN,0.00,WUHU21623XXSP,2013-03-08 11:44:00,
2013-03-08 13:49:00,62.8,48.4,29.87,SSE,157,0.0,9.1,59,0.00,,BKN,0.00,WUHU21623XXSP,2013-03-08 11:49:00,
2013-03-08 13:54:00,62.2,47.8,29.87,NW,315,0.0,10.6,59,0.00,,BKN,0.00,WUHU21623XXSP,2013-03-08 11:54:00,
2013-03-08 13:59:00,62.2,47.4,29.86,SW,225,0.0,10.6,58,0.00,,BKN,0.00,WUHU21623XXSP,2013-03-08 11:59:00,
2013-03-08 14:04:00,62.2,47.4,29.87,SSW,202,8.6,9.4,58,0.00,,BKN,0.00,WUHU21623XXSP,2013-03-08 12:04:00,
2013-03-08 14:09:00,61.9,47.1,29.86,SE,135,0.0,9.4,58,0.00,,BKN,0.00,WUHU21623XXSP,2013-03-08 12:09:00,
2013-03-08 14:14:00,61.7,46.9,29.86,SSE,157,0.0,9.1,58,0.00,,BKN,0.00,WUHU21623XXSP,2013-03-08 12:14:00,
2013-03-08 14:19:00,61.9,47.5,29.86,SW,225,6.4,9.4,59,0.00,,BKN,0.00,WUHU21623XXSP,2013-03-08 12:19:00,
2013-03-08 14:24:00,62.1,47.7,29.86,SSE,157,11.6,11.6,59,0.00,,BKN,0.00,WUHU21623XXSP,2013-03-08 12:24:00,
2013-03-08 14:29:00,62.1,47.3,29.86,SSW,202,4.0,11.6,58,0.00,,BKN,0.00,WUHU21623XXSP,2013-03-08 12:29:00,
2013-03-08 14:34:00,62.1,46.8,29.87,SSW,202,3.4,11.6,57,0.00,,BKN,0.00,WUHU21623XXSP,2013-03-08 12:34:00,
2013-03-08 14:39:00,62.2,47.4,29.86,SE,135,2.0,9.6,58,0.00,,BKN,0.00,WUHU21623XXSP,2013-03-08 12:39:00,
2013-03-08 14:44:00,62.2,47.4,29.86,SSW,202,4.2,9.6,58,0.00,,BKN,0.00,WUHU21623XXSP,2013-03-08 12:44:00,
2013-03-08 14:49:00,62.1,46.8,29.86,NNE,22,0.0,9.6,57,0.00,,BKN,0.00,WUHU21623XXSP,2013-03-08 12:49:00,
2013-03-08 14:54:00,62.4,47.1,29.86,South,180,5.2,9.4,57,0.00,,BKN,0.00,WUHU21623XXSP,2013-03-08 12:54:00,
2013-03-08 14:59:00,63.1,48.2,29.86,NW,315,0.0,9.4,58,0.00,,BKN,0.00,WUHU21623XXSP,2013-03-08 12:59:00,
2013-03-08 15:04:00,63.0,47.2,29.86,SSW,202,1.2,11.8,56,0.00,,BKN,0.00,WUHU21623XXSP,2013-03-08 13:04:00,
2013-03-08 15:09:00,63.0,47.6,29.86,SSE,157,4.9,11.8,57,0.00,,BKN,0.00,WUHU21623XXSP,2013-03-08 13:09:00,
2013-03-08 15:14:00,63.3,47.9,29.85,South,180,2.2,8.1,57,0.00,,BKN,0.00,WUHU21623XXSP,2013-03-08 13:14:00,
2013-03-08 15:19:00,63.9,48.0,29.85,SSW,202,3.4,9.4,56,0.00,,BKN,0.00,WUHU21623XXSP,2013-03-08 13:19:00,
2013-03-08 15:24:00,63.9,47.5,29.85,SSE,157,0.0,9.4,55,0.00,,BKN,0.00,WUHU21623XXSP,2013-03-08 13:24:00,
2013-03-08 15:29:00,63.9,47.5,29.85,SW,225,3.2,7.6,55,0.00,,BKN,0.00,WUHU21623XXSP,2013-03-08 13:29:00,
2013-03-08 15:34:00,63.5,47.6,29.85,SSW,202,10.1,13.3,56,0.00,,BKN,0.00,WUHU21623XXSP,2013-03-08 13:34:00,
2013-03-08 15:39:00,63.3,48.4,29.85,West,270,4.4,13.3,58,0.00,,BKN,0.00,WUHU21623XXSP,2013-03-08 13:39:00,
2013-03-08 15:44:00,63.3,48.4,29.86,South,180,6.9,9.6,58,0.00,,BKN,0.00,WUHU21623XXSP,2013-03-08 13:44:00,
2013-03-08 15:49:00,63.3,48.4,29.86,SW,225,1.0,9.6,58,0.00,,BKN,0.00,WUHU21623XXSP,2013-03-08 13:49:00,
2013-03-08 15:54:00,63.1,48.2,29.85,SSE,157,6.9,9.8,58,0.00,,BKN,0.00,WUHU21623XXSP,2013-03-08 13:54:00,
2013-03-08 15:59:00,63.0,48.6,29.85,SSW,202,6.2,9.8,59,0.00,,BKN,0.00,WUHU21623XXSP,2013-03-08 13:59:00,
2013-03-08 16:04:00,63.3,49.3,29.85,West,270,0.0,9.6,60,0.00,,SCT,0.00,WUHU21623XXSP,2013-03-08 14:04:00,
2013-03-08 16:09:00,63.0,49.5,29.85,South,180,5.4,9.6,61,0.00,,SCT,0.00,WUHU21623XXSP,2013-03-08 14:09:00,
2013-03-08 16:14:00,62.4,48.9,29.85,SSW,202,8.9,8.9,61,0.00,,SCT,0.00,WUHU21623XXSP,2013-03-08 14:14:00,
2013-03-08 16:19:00,62.4,49.4,29.85,SSE,157,1.4,8.9,62,0.00,,SCT,0.00,WUHU21623XXSP,2013-03-08 14:19:00,
2013-03-08 16:24:00,62.2,49.2,29.85,South,180,1.2,9.8,62,0.00,,SCT,0.00,WUHU21623XXSP,2013-03-08 14:24:00,
2013-03-08 16:29:00,62.2,49.2,29.85,South,180,3.2,9.8,62,0.00,,SCT,0.00,WUHU21623XXSP,2013-03-08 14:29:00,
2013-03-08 16:34:00,62.1,48.6,29.85,NW,315,0.0,9.4,61,0.00,,SCT,0.00,WUHU21623XXSP,2013-03-08 14:34:00,
2013-03-08 16:39:00,61.5,48.1,29.85,SSW,202,2.4,9.4,61,0.00,,SCT,0.00,WUHU21623XXSP,2013-03-08 14:39:00,
2013-03-08 16:44:00,61.0,48.0,29.85,South,180,0.0,9.4,62,0.00,,SCT,0.00,WUHU21623XXSP,2013-03-08 14:44:00,
2013-03-08 16:49:00,60.8,48.3,29.85,SSW,202,6.2,9.6,63,0.00,,SCT,0.00,WUHU21623XXSP,2013-03-08 14:49:00,
2013-03-08 16:54:00,60.6,48.5,29.85,SW,225,4.0,9.6,64,0.00,,SCT,0.00,WUHU21623XXSP,2013-03-08 14:54:00,
2013-03-08 16:59:00,61.0,49.3,29.85,SW,225,5.6,9.6,65,0.00,,SCT,0.00,WUHU21623XXSP,2013-03-08 14:59:00,
2013-03-08 17:04:00,60.8,49.1,29.86,SW,225,0.0,12.3,65,0.00,,SCT,0.00,WUHU21623XXSP,2013-03-08 15:04:00,
2013-03-08 17:09:00,60.8,49.5,29.86,South,180,3.4,12.3,66,0.00,,SCT,0.00,WUHU21623XXSP,2013-03-08 15:09:00,
2013-03-08 17:14:00,60.3,49.4,29.86,WSW,247,2.0,9.1,67,0.00,,SCT,0.00,WUHU21623XXSP,2013-03-08 15:14:00,
2013-03-08 17:19:00,60.3,49.8,29.86,SSW,202,8.6,9.1,68,0.00,,SCT,0.00,WUHU21623XXSP,2013-03-08 15:19:00,
2013-03-08 17:24:00,59.9,49.8,29.86,South,180,3.4,12.5,69,0.00,,SCT,0.00,WUHU21623XXSP,2013-03-08 15:24:00,
2013-03-08 17:29:00,59.4,50.5,29.86,SW,225,1.2,12.5,72,0.00,,SCT,0.00,WUHU21623XXSP,2013-03-08 15:29:00,
2013-03-08 17:34:00,59.2,50.7,29.86,SSE,157,2.2,8.4,73,0.00,,SCT,0.00,WUHU21623XXSP,2013-03-08 15:34:00,
2013-03-08 17:39:00,58.8,51.0,29.86,SSW,202,0.0,8.4,75,0.00,,SCT,0.00,WUHU21623XXSP,2013-03-08 15:39:00,
2013-03-08 17:44:00,58.5,51.1,29.86,SW,225,0.0,7.2,76,0.00,,SCT,0.00,WUHU21623XXSP,2013-03-08 15:44:00,
2013-03-08 17:49:00,58.5,51.7,29.86,East,90,0.0,5.9,78,0.00,,SCT,0.00,WUHU21623XXSP,2013-03-08 15:49:00,
2013-03-08 17:54:00,58.1,51.7,29.86,West,270,0.0,5.9,79,0.00,,SCT,0.00,WUHU21623XXSP,2013-03-08 15:54:00,
2013-03-08 17:59:00,58.1,52.0,29.86,SW,225,5.2,5.4,80,0.00,,SCT,0.00,WUHU21623XXSP,2013-03-08 15:59:00,
2013-03-08 18:04:00,57.9,51.8,29.86,SW,225,0.0,5.2,80,0.00,,SCT,0.00,WUHU21623XXSP,2013-03-08 16:04:00,
2013-03-08 18:09:00,57.9,52.5,29.87,North,0,0.0,6.9,82,0.00,,SCT,0.00,WUHU21623XXSP,2013-03-08 16:09:00,
2013-03-08 18:14:00,58.1,52.3,29.87,NE,45,0.0,6.9,81,0.00,,SCT,0.00,WUHU21623XXSP,2013-03-08 16:14:00,
2013-03-08 18:19:00,58.1,52.0,29.87,East,90,0.0,3.0,80,0.00,,SCT,0.00,WUHU21623XXSP,2013-03-08 16:19:00,
2013-03-08 18:24:00,57.9,51.8,29.87,ESE,112,0.0,3.4,80,0.00,,SCT,0.00,WUHU21623XXSP,2013-03-08 16:24:00,
2013-03-08 18:29:00,57.9,52.1,29.87,SW,225,0.0,3.4,81,0.00,,SCT,0.00,WUHU21623XXSP,2013-03-08 16:29:00,
2013-03-08 18:34:00,57.7,52.0,29.87,WSW,247,3.2,3.4,81,0.00,,SCT,0.00,WUHU21623XXSP,2013-03-08 16:34:00,
2013-03-08 18:39:00,57.7,52.3,29.87,WNW,292,0.0,3.4,82,0.00,,SCT,0.00,WUHU21623XXSP,2013-03-08 16:39:00,
2013-03-08 18:44:00,57.6,52.2,29.87,SW,225,1.8,4.0,82,0.00,,SCT,0.00,WUHU21623XXSP,2013-03-08 16:44:00,
2013-03-08 18:49:00,57.6,52.2,29.88,West,270,0.0,4.0,82,0.00,,SCT,0.00,WUHU21623XXSP,2013-03-08 16:49:00,
2013-03-08 18:54:00,57.4,52.0,29.88,WNW,292,0.0,3.2,82,0.00,,SCT,0.00,WUHU21623XXSP,2013-03-08 16:54:00,
2013-03-08 18:59:00,57.4,52.3,29.88,WSW,247,0.0,4.4,83,0.00,,SCT,0.00,WUHU21623XXSP,2013-03-08 16:59:00,
2013-03-08 19:04:00,57.4,52.3,29.88,WSW,247,0.0,4.4,83,0.00,,SCT,0.00,WUHU21623XXSP,2013-03-08 17:04:00,
2013-03-08 19:09:00,57.4,52.6,29.87,West,270,0.0,1.0,84,0.00,,SCT,0.00,WUHU21623XXSP,2013-03-08 17:09:00,
2013-03-08 19:14:00,57.2,52.4,29.88,NW,315,0.0,0.0,84,0.00,,SCT,0.00,WUHU21623XXSP,2013-03-08 17:14:00,
2013-03-08 19:19:00,57.0,52.2,29.88,West,270,0.0,0.0,84,0.00,,SCT,0.00,WUHU21623XXSP,2013-03-08 17:19:00,
2013-03-08 19:24:00,56.8,52.0,29.88,West,270,0.0,0.0,84,0.00,,SCT,0.00,WUHU21623XXSP,2013-03-08 17:24:00,
2013-03-08 19:29:00,56.8,52.3,29.88,WSW,247,0.0,0.0,85,0.00,,SCT,0.00,WUHU21623XXSP,2013-03-08 17:29:00,
2013-03-08 19:34:00,56.8,52.3,29.87,West,270,0.0,0.0,85,0.00,,SCT,0.00,WUHU21623XXSP,2013-03-08 17:34:00,
2013-03-08 19:39:00,56.8,52.3,29.87,SW,225,0.0,0.0,85,0.00,,SCT,0.00,WUHU21623XXSP,2013-03-08 17:39:00,
2013-03-08 19:44:00,56.7,52.2,29.87,WNW,292,0.0,0.0,85,0.00,,SCT,0.00,WUHU21623XXSP,2013-03-08 17:44:00,
2013-03-08 19:49:00,56.7,52.2,29.87,WNW,292,0.0,0.0,85,0.00,,SCT,0.00,WUHU21623XXSP,2013-03-08 17:49:00,
2013-03-08 19:54:00,56.5,52.4,29.87,WSW,247,0.0,0.0,86,0.00,,SCT,0.00,WUHU21623XXSP,2013-03-08 17:54:00,
2013-03-08 19:59:00,56.5,52.4,29.88,SW,225,0.0,0.0,86,0.00,,SCT,0.00,WUHU21623XXSP,2013-03-08 17:59:00,
2013-03-08 20:04:00,56.5,52.4,29.87,SW,225,0.0,0.0,86,0.00,,SCT,0.00,WUHU21623XXSP,2013-03-08 18:04:00,
2013-03-08 20:09:00,56.3,52.2,29.87,SW,225,0.0,0.0,86,0.00,,SCT,0.00,WUHU21623XXSP,2013-03-08 18:09:00,
2013-03-08 20:14:00,56.3,52.5,29.87,WSW,247,0.0,0.0,87,0.00,,SCT,0.00,WUHU21623XXSP,2013-03-08 18:14:00,
2013-03-08 20:19:00,56.1,52.6,29.87,WSW,247,0.0,0.0,88,0.00,,SCT,0.00,WUHU21623XXSP,2013-03-08 18:19:00,
2013-03-08 20:24:00,55.9,52.4,29.88,WSW,247,0.0,0.0,88,0.00,,SCT,0.00,WUHU21623XXSP,2013-03-08 18:24:00,
2013-03-08 20:29:00,55.9,52.4,29.87,SW,225,0.0,0.0,88,0.00,,SCT,0.00,WUHU21623XXSP,2013-03-08 18:29:00,
2013-03-08 20:34:00,55.9,52.4,29.88,WSW,247,0.0,0.0,88,0.00,,SCT,0.00,WUHU21623XXSP,2013-03-08 18:34:00,
2013-03-08 20:39:00,55.8,52.3,29.88,SSW,202,0.0,0.0,88,0.00,,SCT,0.00,WUHU21623XXSP,2013-03-08 18:39:00,
2013-03-08 20:45:00,55.8,52.6,29.88,SW,225,0.0,0.0,89,0.00,,SCT,0.00,WUHU21623XXSP,2013-03-08 18:45:00,
2013-03-08 20:50:00,55.6,52.4,29.87,SW,225,0.0,0.0,89,0.00,,SCT,0.00,WUHU21623XXSP,2013-03-08 18:50:00,
2013-03-08 20:55:00,55.6,50.9,29.87,NE,45,0.0,0.0,84,0.00,,SCT,0.00,WUHU21623XXSP,2013-03-08 18:55:00,
2013-03-08 21:00:00,55.4,50.7,29.87,NNW,337,0.0,0.0,84,0.00,,SCT,0.00,WUHU21623XXSP,2013-03-08 19:00:00,
2013-03-08 21:05:00,55.2,50.5,29.87,North,0,0.0,0.0,84,0.00,,SCT,0.00,WUHU21623XXSP,2013-03-08 19:05:00,
2013-03-08 21:10:00,55.2,50.8,29.87,NW,315,0.0,0.0,85,0.00,,SCT,0.00,WUHU21623XXSP,2013-03-08 19:10:00,
2013-03-08 21:15:00,55.2,50.8,29.87,WSW,247,0.0,0.0,85,0.00,,SCT,0.00,WUHU21623XXSP,2013-03-08 19:15:00,
2013-03-08 21:20:00,55.0,50.6,29.87,West,270,0.0,0.0,85,0.00,,SCT,0.00,WUHU21623XXSP,2013-03-08 19:20:00,
2013-03-08 21:25:00,55.0,50.6,29.88,WNW,292,0.0,0.0,85,0.00,,SCT,0.00,WUHU21623XXSP,2013-03-08 19:25:00,
2013-03-08 21:30:00,54.9,50.5,29.88,WNW,292,0.0,0.0,85,0.00,,SCT,0.00,WUHU21623XXSP,2013-03-08 19:30:00,
2013-03-08 21:35:00,54.9,50.8,29.88,WNW,292,0.0,0.0,86,0.00,,SCT,0.00,WUHU21623XXSP,2013-03-08 19:35:00,
2013-03-08 21:40:00,54.9,50.8,29.88,WSW,247,0.0,0.0,86,0.00,,SCT,0.00,WUHU21623XXSP,2013-03-08 19:40:00,
2013-03-08 21:45:00,54.7,50.6,29.88,WSW,247,0.0,0.0,86,0.00,,SCT,0.00,WUHU21623XXSP,2013-03-08 19:45:00,
2013-03-08 21:50:00,54.7,50.6,29.88,West,270,0.0,0.0,86,0.00,,SCT,0.00,WUHU21623XXSP,2013-03-08 19:50:00,
2013-03-08 21:55:00,54.7,50.9,29.88,South,180,0.0,0.0,87,0.00,,SCT,0.00,WUHU21623XXSP,2013-03-08 19:55:00,
2013-03-08 22:00:00,54.7,50.9,29.88,SSW,202,0.0,0.0,87,0.00,,SCT,0.00,WUHU21623XXSP,2013-03-08 20:00:00,
2013-03-08 22:05:00,54.5,50.7,29.88,WNW,292,0.0,0.0,87,0.00,,SCT,0.00,WUHU21623XXSP,2013-03-08 20:05:00,
2013-03-08 22:10:00,54.5,50.7,29.88,WNW,292,0.0,0.0,87,0.00,,SCT,0.00,WUHU21623XXSP,2013-03-08 20:10:00,
2013-03-08 22:27:00,54.5,49.8,29.88,NNE,23,0.0,0.0,84,0.00,,SCT,0.00,WUHU21623XXSP,2013-03-08 20:27:00,
2013-03-08 23:27:00,54.0,49.9,29.88,West,270,0.0,0.0,86,0.00,,SCT,0.00,WUHU21623XXSP,2013-03-08 21:27:00,